Tracking 30995 objects as of 5-Jul-2025
HD Live streaming from Space Station
objects crossing your sky now

STARLINK-33828

Track STARLINK-33828 now!
10-day predictions
STARLINK-33828 is classified as:


NORAD ID: 63493
Int'l Code: 2025-071A
Perigee: 481.6 km
Apogee: 483.1 km
Inclination: 53.2 °
Period: 94.1 minutes
Semi major axis: 6853 km
RCS: Unknown
Launch date: April 7, 2025
Source: United States (US)
Launch site: AIR FORCE WESTERN TEST RANGE (AFWTR)
Your satellite tracking list
COSMOS 2441
Track 1 satellite(s)




NASA's NSSDC Master Catalog

Two Line Element Set (TLE):
1 63493U 25071A   25186.43445579  .00008011  00000-0  28231-3 0  9992
2 63493  53.1582 210.5712 0001113  80.6600 279.4527 15.30200417 14863
Source of the keplerian elements: AFSPC